Time,TemperatureF,DewpointF,PressureIn,WindDirection,WindDirectionDegrees,WindSpeedMPH,WindSpeedGustMPH,Humidity,HourlyPrecipIn,Conditions,Clouds,dailyrainin,SolarRadiationWatts/m^2,SoftwareType,DateUTC
2013-10-23 00:42:00,46.0,34.0,-100.00,East,100,2.0,4.0,62,-99.99,,,-99.99,0.000000,,2013-10-23 06:42:00,
2013-10-23 00:52:00,46.0,34.0,-100.00,East,100,2.0,4.0,62,-99.99,,,-99.99,0.000000,,2013-10-23 06:52:00,
2013-10-23 01:22:00,44.0,33.0,-100.00,East,94,3.0,5.0,64,-99.99,,,0.00,0.000000,,2013-10-23 07:22:00,
2013-10-23 01:32:00,44.0,33.0,-100.00,East,94,3.0,5.0,64,-99.99,,,0.00,0.000000,,2013-10-23 07:32:00,
2013-10-23 01:42:00,44.0,33.0,-100.00,East,94,3.0,5.0,64,-99.99,,,0.00,0.000000,,2013-10-23 07:42:00,
2013-10-23 01:52:00,44.0,33.0,-100.00,East,94,3.0,5.0,64,-99.99,,,0.00,0.000000,,2013-10-23 07:52:00,
2013-10-23 02:22:00,43.0,33.0,-100.00,East,101,3.0,5.0,67,-99.99,,,0.00,0.000000,,2013-10-23 08:22:00,
2013-10-23 02:32:00,43.0,33.0,-100.00,East,101,3.0,5.0,67,-99.99,,,0.00,0.000000,,2013-10-23 08:32:00,
2013-10-23 02:42:00,43.0,33.0,-100.00,East,101,3.0,5.0,67,-99.99,,,0.00,0.000000,,2013-10-23 08:42:00,
2013-10-23 02:52:00,43.0,33.0,-100.00,East,101,3.0,5.0,67,-99.99,,,0.00,0.000000,,2013-10-23 08:52:00,
2013-10-23 03:53:00,43.0,33.0,-100.00,East,88,3.0,5.0,67,-99.99,,,0.00,0.000000,,2013-10-23 09:53:00,
2013-10-23 04:43:00,43.0,32.0,-100.00,ESE,111,1.0,4.0,66,-99.99,,,0.00,0.000000,,2013-10-23 10:43:00,
2013-10-23 05:42:00,41.0,32.0,-100.00,ESE,103,3.0,4.0,70,-99.99,,,-99.99,0.000000,,2013-10-23 11:42:00,
2013-10-23 05:52:00,41.0,32.0,-100.00,ESE,103,3.0,4.0,70,-99.99,,,-99.99,0.000000,,2013-10-23 11:52:00,
2013-10-23 06:42:00,40.0,31.0,-100.00,ESE,103,3.0,5.0,71,-99.99,,,0.00,0.000000,,2013-10-23 12:42:00,
2013-10-23 07:42:00,39.0,31.0,-100.00,ESE,108,2.0,4.0,72,-99.99,,,0.00,0.000000,,2013-10-23 13:42:00,
2013-10-23 07:52:00,39.0,31.0,-100.00,ESE,108,2.0,4.0,72,-99.99,,,0.00,0.000000,,2013-10-23 13:52:00,
2013-10-23 08:42:00,39.0,31.0,-100.00,ESE,110,2.0,5.0,73,-99.99,,,-99.99,0.000000,,2013-10-23 14:42:00,
2013-10-23 09:53:00,40.0,31.0,-100.00,ESE,109,2.0,6.0,71,-99.99,,,-99.99,7.000000,,2013-10-23 15:53:00,
2013-10-23 10:23:00,43.0,34.0,-100.00,ESE,117,1.0,5.0,70,0.00,,,0.00,37.000000,,2013-10-23 16:23:00,
2013-10-23 10:33:00,43.0,34.0,-100.00,ESE,117,1.0,5.0,70,0.00,,,0.00,37.000000,,2013-10-23 16:33:00,
2013-10-23 10:42:00,43.0,34.0,-100.00,ESE,117,1.0,5.0,70,0.00,,,0.00,37.000000,,2013-10-23 16:42:00,
2013-10-23 10:53:00,43.0,34.0,-100.00,ESE,117,1.0,5.0,70,0.00,,,0.00,37.000000,,2013-10-23 16:53:00,
2013-10-23 11:22:00,47.0,35.0,-100.00,East,95,4.0,6.0,62,0.00,,,0.00,42.000000,,2013-10-23 17:22:00,
2013-10-23 11:33:00,47.0,35.0,-100.00,East,95,4.0,6.0,62,0.00,,,0.00,42.000000,,2013-10-23 17:33:00,
2013-10-23 11:44:00,47.0,35.0,-100.00,East,95,4.0,6.0,62,0.00,,,0.00,42.000000,,2013-10-23 17:44:00,
2013-10-23 11:52:00,47.0,35.0,-100.00,East,95,4.0,6.0,62,0.00,,,0.00,42.000000,,2013-10-23 17:52:00,
2013-10-23 13:42:00,61.0,36.0,-100.00,SSW,209,0.0,5.0,40,-99.99,,,0.00,446.000000,,2013-10-23 19:42:00,
2013-10-23 13:53:00,61.0,36.0,-100.00,SSW,209,0.0,5.0,40,-99.99,,,0.00,446.000000,,2013-10-23 19:53:00,
2013-10-23 14:22:00,62.0,36.0,-100.00,WNW,288,2.0,6.0,38,0.00,,,0.00,585.000000,,2013-10-23 20:22:00,
2013-10-23 14:33:00,62.0,36.0,-100.00,WNW,288,2.0,6.0,38,0.00,,,0.00,585.000000,,2013-10-23 20:33:00,
2013-10-23 14:42:00,62.0,36.0,-100.00,WNW,288,2.0,6.0,38,0.00,,,0.00,585.000000,,2013-10-23 20:42:00,
2013-10-23 14:52:00,62.0,36.0,-100.00,WNW,288,2.0,6.0,38,0.00,,,0.00,585.000000,,2013-10-23 20:52:00,
2013-10-23 15:22:00,62.0,35.0,-100.00,West,275,3.0,6.0,36,0.00,,,0.00,559.000000,,2013-10-23 21:22:00,
2013-10-23 15:34:00,62.0,35.0,-100.00,West,275,3.0,6.0,36,0.00,,,0.00,559.000000,,2013-10-23 21:34:00,
2013-10-23 15:43:00,62.0,35.0,-100.00,West,275,3.0,6.0,36,0.00,,,0.00,559.000000,,2013-10-23 21:43:00,
2013-10-23 15:54:00,62.0,35.0,-100.00,West,275,3.0,6.0,36,0.00,,,0.00,559.000000,,2013-10-23 21:54:00,
2013-10-23 16:24:00,63.0,34.0,-100.00,West,276,2.0,7.0,34,0.00,,,0.00,481.000000,,2013-10-23 22:24:00,
2013-10-23 16:33:00,63.0,34.0,-100.00,West,276,2.0,7.0,34,0.00,,,0.00,481.000000,,2013-10-23 22:33:00,
2013-10-23 16:43:00,63.0,34.0,-100.00,West,276,2.0,7.0,34,0.00,,,0.00,481.000000,,2013-10-23 22:43:00,
2013-10-23 16:54:00,63.0,34.0,-100.00,West,276,2.0,7.0,34,0.00,,,0.00,481.000000,,2013-10-23 22:54:00,
2013-10-23 17:22:00,63.0,34.0,-100.00,West,270,2.0,7.0,34,0.00,,,0.00,357.000000,,2013-10-23 23:22:00,
2013-10-23 17:34:00,63.0,34.0,-100.00,West,270,2.0,7.0,34,0.00,,,0.00,357.000000,,2013-10-23 23:34:00,
2013-10-23 17:42:00,63.0,34.0,-100.00,West,270,2.0,7.0,34,0.00,,,0.00,357.000000,,2013-10-23 23:42:00,
2013-10-23 17:52:00,63.0,34.0,-100.00,West,270,2.0,7.0,34,0.00,,,0.00,357.000000,,2013-10-23 23:52:00,
2013-10-23 18:22:00,61.0,34.0,-100.00,WNW,283,1.0,6.0,36,0.00,,,0.00,196.000000,,2013-10-24 00:22:00,
2013-10-23 18:32:00,61.0,34.0,-100.00,WNW,283,1.0,6.0,36,0.00,,,0.00,196.000000,,2013-10-24 00:32:00,
2013-10-23 18:42:00,61.0,34.0,-100.00,WNW,283,1.0,6.0,36,0.00,,,0.00,196.000000,,2013-10-24 00:42:00,
2013-10-23 18:52:00,61.0,34.0,-100.00,WNW,283,1.0,6.0,36,0.00,,,0.00,196.000000,,2013-10-24 00:52:00,
2013-10-23 19:21:00,53.0,33.0,-100.00,West,277,0.0,4.0,46,0.00,,,0.00,23.000000,,2013-10-24 01:21:00,
2013-10-23 19:32:00,53.0,33.0,-100.00,West,277,0.0,4.0,46,0.00,,,0.00,23.000000,,2013-10-24 01:32:00,
2013-10-23 19:42:00,53.0,33.0,-100.00,West,277,0.0,4.0,46,0.00,,,0.00,23.000000,,2013-10-24 01:42:00,
2013-10-23 19:52:00,53.0,33.0,-100.00,West,277,0.0,4.0,46,0.00,,,0.00,23.000000,,2013-10-24 01:52:00,
2013-10-23 20:22:00,52.0,33.0,-100.00,ENE,64,0.0,1.0,49,0.00,,,0.00,0.000000,,2013-10-24 02:22:00,
2013-10-23 20:32:00,52.0,33.0,-100.00,ENE,64,0.0,1.0,49,0.00,,,0.00,0.000000,,2013-10-24 02:32:00,
2013-10-23 20:42:00,52.0,33.0,-100.00,ENE,64,0.0,1.0,49,0.00,,,0.00,0.000000,,2013-10-24 02:42:00,
2013-10-23 20:52:00,52.0,33.0,-100.00,ENE,64,0.0,1.0,49,0.00,,,0.00,0.000000,,2013-10-24 02:52:00,
2013-10-23 21:22:00,50.0,32.0,-100.00,ENE,74,0.0,2.0,50,0.00,,,0.00,0.000000,,2013-10-24 03:22:00,
2013-10-23 21:34:00,50.0,32.0,-100.00,ENE,74,0.0,2.0,50,0.00,,,0.00,0.000000,,2013-10-24 03:34:00,
2013-10-23 21:44:00,50.0,32.0,-100.00,ENE,74,0.0,2.0,50,0.00,,,0.00,0.000000,,2013-10-24 03:44:00,
2013-10-23 21:54:00,50.0,32.0,-100.00,ENE,74,0.0,2.0,50,0.00,,,0.00,0.000000,,2013-10-24 03:54:00,
2013-10-23 22:24:00,49.0,31.0,-100.00,ESE,123,0.0,1.0,50,0.00,,,0.00,0.000000,,2013-10-24 04:24:00,
2013-10-23 22:35:00,49.0,31.0,-100.00,ESE,123,0.0,1.0,50,0.00,,,0.00,0.000000,,2013-10-24 04:35:00,
2013-10-23 22:44:00,49.0,31.0,-100.00,ESE,123,0.0,1.0,50,0.00,,,0.00,0.000000,,2013-10-24 04:44:00,
2013-10-23 22:54:00,49.0,31.0,-100.00,ESE,123,0.0,1.0,50,0.00,,,0.00,0.000000,,2013-10-24 04:54:00,
2013-10-23 23:43:00,48.0,32.0,-100.00,ESE,114,0.0,4.0,54,-99.99,,,0.00,0.000000,,2013-10-24 05:43:00,
2013-10-23 23:53:00,48.0,32.0,-100.00,ESE,114,0.0,4.0,54,-99.99,,,0.00,0.000000,,2013-10-24 05:53:00,